{"data":{"norad_id":58085,"epoch":"2026-09-20T03:20:46.284576Z","epoch_age_seconds":171581,"freshness":"FRESH","line1":"1 58085U 23160L   26263.13942459 -.00000057  00000+0  74549-5 0  9990","line2":"2 58085  42.9969  63.2098 0000473 278.8513  81.2285 15.27573718162644","mean_motion":15.27573718,"eccentricity":4.73e-5,"inclination_deg":42.9969,"raan_deg":63.2098,"arg_perigee_deg":278.8513,"mean_anomaly_deg":81.2285,"bstar":7.4549e-6,"rev_number":16264,"period_min":94.26713637659,"perigee_km":482.74337167997,"apogee_km":483.39244166414,"semimajor_km":6861.2049066721,"source":"CELESTRAK","updated_at":"2026-09-21T09:00:33.783391Z"}}